EW0531 Weather Reports


Display with metric or nautical units.
time (UTC)temp
F
wind
direction
speed
MPH
gust
MPH
rain 1hr
in
rain 24hr
in
rain mn
in
humidity
%
barometer
mb
20260505191548 60 42 3.0 8.0 0.00 0.00 0.00 59 1012.0
20260505191038 60 335 2.0 12.0 0.00 0.00 0.00 59 1012.0
20260505190536 60 343 3.0 12.0 0.00 0.00 0.00 59 1012.0
20260505190046 60 28 5.0 10.0 0.00 0.00 0.00 59 1012.0
20260505185536 60 5 1.0 9.0 0.00 0.00 0.00 60 1011.9
20260505185037 60 13 3.0 7.0 0.00 0.00 0.00 59 1011.9
20260505184551 60 355 2.0 8.0 0.00 0.00 0.00 59 1011.9
20260505184041 60 28 3.0 8.0 0.00 0.00 0.00 59 1011.8
20260505183536 60 24 3.0 8.0 0.00 0.00 0.00 58 1011.8
20260505183049 60 348 2.0 10.0 0.00 0.00 0.00 58 1011.8
20260505182534 60 30 4.0 10.0 0.00 0.00 0.00 58 1011.8
20260505182037 60 352 4.0 12.0 0.00 0.00 0.00 58 1011.8
20260505181541 60 342 5.0 12.0 0.00 0.00 0.00 58 1011.8
20260505181037 60 22 3.0 9.0 0.00 0.00 0.00 58 1011.7
20260505180538 61 340 2.0 12.0 0.00 0.00 0.00 58 1011.8
20260505180046 61 36 3.0 12.0 0.00 0.00 0.00 58 1011.8
20260505175537 61 42 5.0 12.0 0.00 0.00 0.00 58 1011.7
20260505175039 61 9 4.0 13.0 0.00 0.00 0.00 58 1011.7
20260505174547 61 19 5.0 13.0 0.00 0.00 0.00 58 1011.8
20260505174037 61 27 5.0 11.0 0.00 0.00 0.00 58 1011.7
20260505173536 61 23 3.0 11.0 0.00 0.00 0.00 58 1011.8
20260505173046 61 348 3.0 11.0 0.00 0.00 0.00 58 1011.8
20260505172536 61 49 3.0 11.0 0.00 0.00 0.00 58 1011.9
20260505172037 61 26 4.0 11.0 0.00 0.00 0.00 57 1011.9
20260505171550 61 24 5.0 11.0 0.00 0.00 0.00 57 1012.0
20260505171037 61 22 4.0 11.0 0.00 0.00 0.00 57 1011.9
20260505170536 61 40 2.0 9.0 0.00 0.00 0.00 57 1012.0
20260505170046 61 355 2.0 13.0 0.00 0.00 0.00 58 1012.0
20260505165534 61 40 3.0 13.0 0.00 0.00 0.00 58 1012.1
20260505165037 61 13 4.0 9.0 0.00 0.00 0.00 57 1012.0
20260505164547 61 355 3.0 9.0 0.00 0.00 0.00 57 1012.0
20260505164033 61 0 3.0 11.0 0.00 0.00 0.00 57 1012.1
20260505163537 61 38 4.0 11.0 0.00 0.00 0.00 56 1012.0
20260505163048 62 58 4.0 9.0 0.00 0.00 0.00 56 1012.0
20260505162538 62 0 1.0 10.0 0.00 0.00 0.00 57 1012.0
20260505162038 62 26 3.0 13.0 0.00 0.00 0.00 57 1012.1
20260505161556 62 0 2.0 13.0 0.00 0.00 0.00 57 1012.1
20260505161037 62 46 6.0 12.0 0.00 0.00 0.00 56 1012.1
20260505160537 62 19 1.0 12.0 0.00 0.00 0.00 57 1012.0
20260505153101 62 20 3.0 12.0 0.00 0.00 0.00 55 1012.1
20260505152537 62 319 3.0 12.0 0.00 0.00 0.00 56 1012.2
20260505152037 63 22 2.0 12.0 0.00 0.00 0.00 55 1012.1
20260505151549 62 54 0.0 10.0 0.00 0.00 0.00 56 1012.1
20260505151039 62 0 4.0 10.0 0.00 0.00 0.00 55 1012.1
20260505150537 62 37 4.0 12.0 0.00 0.00 0.00 55 1012.2
20260505140536 62 337 6.0 14.0 0.00 0.00 0.00 54 1012.3
20260505125037 64 50 3.0 14.0 0.00 0.00 0.00 52 1012.4
20260505124543 64 319 7.0 14.0 0.00 0.00 0.00 52 1012.4
20260505124036 64 306 3.0 18.0 0.00 0.00 0.00 52 1012.5
20260505123539 64 12 5.0 18.0 0.00 0.00 0.00 52 1012.5
20260505123057 64 355 6.0 12.0 0.00 0.00 0.00 50 1012.5
20260505122536 65 330 4.0 15.0 0.00 0.00 0.00 50 1012.5
20260505122037 65 5 6.0 15.0 0.00 0.00 0.00 51 1012.5
20260505121547 65 60 6.0 13.0 0.00 0.00 0.00 51 1012.6
20260505121040 65 27 6.0 13.0 0.00 0.00 0.00 53 1012.6
20260505120536 65 36 8.0 13.0 0.00 0.00 0.00 53 1012.5
20260505120056 65 40 3.0 12.0 0.00 0.00 0.00 53 1012.5
20260505115537 65 340 4.0 14.0 0.00 0.00 0.00 54 1012.6
20260505115036 65 5 5.0 14.0 0.00 0.00 0.00 55 1012.6
20260505114551 64 351 5.0 14.0 0.00 0.00 0.00 56 1012.5
20260505114037 64 27 6.0 12.0 0.00 0.00 0.00 57 1012.7
20260505113539 63 86 6.0 14.0 0.00 0.00 0.00 59 1012.7
20260505113051 63 339 5.0 14.0 0.00 0.00 0.00 59 1012.7
20260505112536 62 60 6.0 14.0 0.00 0.00 0.00 59 1012.6
20260505112036 62 17 6.0 13.0 0.00 0.00 0.00 60 1012.8
20260505111546 62 53 5.0 17.0 0.00 0.00 0.00 61 1012.7
20260505111036 62 32 7.0 17.0 0.00 0.00 0.00 59 1012.8
20260505110535 64 47 4.0 13.0 0.00 0.00 0.00 58 1012.8
20260505102037 60 5 6.0 13.0 0.00 0.00 0.00 64 1013.1
20260505101543 60 69 4.0 12.0 0.00 0.00 0.00 60 1013.1
20260505101036 60 22 7.0 12.0 0.00 0.00 0.00 61 1013.1
20260505100536 60 17 6.0 12.0 0.00 0.00 0.00 61 1013.1
20260505100048 59 66 5.0 12.0 0.00 0.00 0.00 60 1013.2
20260505095536 60 26 6.0 15.0 0.00 0.00 0.00 60 1013.2
20260505095036 60 10 6.0 15.0 0.00 0.00 0.00 61 1013.1
20260505094549 59 19 6.0 16.0 0.00 0.00 0.00 62 1013.2
20260505094036 59 42 8.0 16.0 0.00 0.00 0.00 64 1013.1
20260505093536 59 5 6.0 11.0 0.00 0.00 0.00 64 1013.3
20260505093046 60 30 5.0 11.0 0.00 0.00 0.00 63 1013.3
20260505092537 60 63 6.0 14.0 0.00 0.00 0.00 62 1013.2
20260505092036 60 30 5.0 14.0 0.00 0.00 0.00 62 1013.3
20260505091601 60 48 7.0 13.0 0.00 0.00 0.00 64 1013.3
20260505091037 59 350 5.0 13.0 0.00 0.00 0.00 66 1013.4
20260505090537 58 46 7.0 13.0 0.00 0.00 0.00 65 1013.4
20260505090055 58 32 6.0 13.0 0.00 0.00 0.00 67 1013.3
20260505085537 58 28 5.0 13.0 0.00 0.00 0.00 68 1013.3
20260505085036 58 31 5.0 12.0 0.00 0.00 0.00 68 1013.4
20260505084601 58 55 5.0 12.0 0.00 0.00 0.00 68 1013.4
20260505084037 58 38 5.0 12.0 0.00 0.00 0.00 68 1013.4
20260505083533 57 355 4.0 11.0 0.00 0.00 0.00 70 1013.5
20260505083103 57 63 4.0 11.0 0.00 0.00 0.00 70 1013.4
20260505082537 57 43 5.0 15.0 0.00 0.00 0.00 70 1013.5
20260505082037 57 37 5.0 15.0 0.00 0.00 0.00 70 1013.5
20260505081557 57 30 5.0 14.0 0.00 0.00 0.00 70 1013.5
20260505081037 57 22 5.0 14.0 0.00 0.00 0.00 69 1013.6
20260505080537 57 17 5.0 12.0 0.00 0.00 0.00 69 1013.5
20260505080057 57 24 6.0 15.0 0.00 0.00 0.00 68 1013.6
20260505075534 57 355 6.0 15.0 0.00 0.00 0.00 68 1013.5
20260505075034 57 50 7.0 14.0 0.00 0.00 0.00 67 1013.5
20260505074548 58 41 8.0 14.0 0.00 0.00 0.00 67 1013.6
20260505074034 58 74 5.0 13.0 0.00 0.00 0.00 68 1013.4
20260505073535 58 11 5.0 13.0 0.00 0.00 0.00 67 1013.3
20260505073054 57 46 5.0 13.0 0.00 0.00 0.00 68 1013.4
20260505072536 57 34 5.0 12.0 0.00 0.00 0.00 69 1013.4
20260505072036 57 9 3.0 13.0 0.00 0.00 0.00 69 1013.4
20260505071549 57 55 5.0 13.0 0.00 0.00 0.00 69 1013.4
20260505071037 57 96 3.0 10.0 0.00 0.00 0.00 71 1013.4
20260505070535 57 25 4.0 10.0 0.00 0.00 0.00 72 1013.4
20260505070052 56 19 4.0 11.0 0.00 0.00 0.00 73 1013.4
20260505065537 56 30 5.0 11.0 0.00 0.00 0.00 74 1013.5
20260505065036 56 49 4.0 11.0 0.00 0.00 0.00 75 1013.5
20260505064545 55 38 5.0 11.0 0.00 0.00 0.00 75 1013.6
20260505064038 55 46 4.0 12.0 0.00 0.00 0.00 76 1013.5
20260505063536 55 355 3.0 12.0 0.00 0.00 0.00 77 1013.5
20260505063052 55 65 3.0 9.0 0.00 0.00 0.00 77 1013.6
20260505062534 54 43 3.0 9.0 0.00 0.00 0.00 78 1013.5
20260505062034 54 30 3.0 11.0 0.00 0.00 0.00 79 1013.5
20260505061546 53 16 5.0 11.0 0.00 0.00 0.00 80 1013.4
20260505061034 53 36 4.0 9.0 0.00 0.00 0.00 80 1013.5
20260505060537 53 341 3.0 7.0 0.00 0.00 0.00 80 1013.4
20260505060101 53 42 3.0 6.0 0.00 0.00 0.00 80 1013.4
20260505055537 53 50 3.0 7.0 0.00 0.00 0.00 81 1013.5
20260505055034 53 43 3.0 7.0 0.00 0.00 0.00 81 1013.4
20260505054553 53 65 1.0 9.0 0.00 0.00 0.00 81 1013.5
20260505054039 53 32 2.0 9.0 0.00 0.00 0.00 81 1013.5
20260505053535 53 90 0.0 8.0 0.00 0.00 0.00 81 1013.4
20260505053051 53 36 2.0 8.0 0.00 0.00 0.00 81 1013.3
20260505052537 53 26 3.0 9.0 0.00 0.00 0.00 81 1013.2
20260505052038 53 32 0.0 9.0 0.00 0.00 0.00 81 1013.3
20260505051550 53 39 2.0 9.0 0.00 0.00 0.00 81 1013.2
20260505051037 53 20 1.0 8.0 0.00 0.00 0.00 81 1013.1
20260505050534 53 355 2.0 9.0 0.00 0.00 0.00 81 1013.1
20260505041555 54 0 1.0 5.0 0.00 0.00 0.00 80 1013.2
20260505041035 55 51 1.0 6.0 0.00 0.00 0.00 80 1013.2
20260505040536 55 37 1.0 6.0 0.00 0.00 0.00 80 1013.2
20260505040057 55 26 2.0 6.0 0.00 0.00 0.00 80 1013.2
20260505035535 55 24 2.0 6.0 0.00 0.00 0.00 81 1013.2
20260505035039 55 36 3.0 7.0 0.00 0.00 0.00 81 1013.2
20260505034550 55 5 3.0 7.0 0.00 0.00 0.00 81 1013.3
20260505034037 55 34 3.0 7.0 0.00 0.00 0.00 81 1013.3
20260505033536 55 40 2.0 7.0 0.00 0.00 0.00 81 1013.4
20260505033048 55 37 1.0 4.0 0.00 0.00 0.00 81 1013.5
20260505032535 55 16 2.0 4.0 0.00 0.00 0.00 81 1013.5
20260505032037 55 17 1.0 6.0 0.00 0.00 0.00 81 1013.6
20260505031548 55 26 2.0 6.0 0.00 0.00 0.00 81 1013.5
20260505031036 55 26 1.0 5.0 0.00 0.00 0.00 81 1013.5
20260505030537 55 22 1.0 5.0 0.00 0.00 0.00 81 1013.5
20260505030105 55 31 1.0 5.0 0.00 0.00 0.00 81 1013.5
20260505025537 55 26 0.0 6.0 0.00 0.00 0.00 81 1013.4
20260505025036 55 0 2.0 7.0 0.00 0.00 0.00 81 1013.5
20260505024549 55 36 2.0 7.0 0.00 0.00 0.00 80 1013.6
20260505024036 55 36 2.0 6.0 0.00 0.00 0.00 80 1013.5
20260505023537 55 50 1.0 5.0 0.00 0.00 0.00 80 1013.6
20260505023049 55 45 2.0 5.0 0.00 0.00 0.00 80 1013.5
20260505022537 55 352 2.0 10.0 0.00 0.00 0.00 80 1013.5
20260505022038 55 0 3.0 10.0 0.00 0.00 0.00 80 1013.6
20260505021546 55 42 3.0 10.0 0.00 0.00 0.00 80 1013.6
20260505021036 55 69 3.0 9.0 0.00 0.00 0.00 80 1013.5
20260505020536 56 46 4.0 9.0 0.00 0.00 0.00 80 1013.5
20260505020048 56 5 2.0 9.0 0.00 0.00 0.00 80 1013.5
20260505015536 56 68 2.0 9.0 0.00 0.00 0.00 80 1013.6
20260505015036 56 23 3.0 9.0 0.00 0.00 0.00 80 1013.6
20260505014606 56 0 1.0 6.0 0.00 0.00 0.00 80 1013.6
20260505014036 56 59 2.0 9.0 0.00 0.00 0.00 80 1013.6
20260505013536 56 59 2.0 9.0 0.00 0.00 0.00 80 1013.6
20260505013053 56 0 2.0 9.0 0.00 0.00 0.00 80 1013.7
20260505012537 56 65 2.0 6.0 0.00 0.00 0.00 80 1013.8
20260505012037 56 63 1.0 6.0 0.00 0.00 0.00 80 1013.8
20260505011546 56 59 2.0 8.0 0.00 0.00 0.00 80 1013.9
20260505011040 56 42 1.0 8.0 0.00 0.00 0.00 81 1013.8
20260505010536 56 57 4.0 10.0 0.00 0.00 0.00 80 1013.9
20260505010058 56 48 3.0 12.0 0.00 0.00 0.00 80 1014.0
20260505005539 56 0 4.0 12.0 0.00 0.00 0.00 81 1013.9
20260505005037 56 44 2.0 11.0 0.00 0.00 0.00 81 1014.0
20260505004551 56 71 3.0 11.0 0.00 0.00 0.00 81 1014.0
20260505004036 56 38 4.0 9.0 0.00 0.00 0.00 81 1014.0
20260505003536 56 60 3.0 9.0 0.00 0.00 0.00 81 1014.0
20260505003056 56 70 1.0 9.0 0.00 0.00 0.00 81 1014.1
20260505002536 56 0 3.0 9.0 0.00 0.00 0.00 81 1014.1
20260505002036 56 54 2.0 10.0 0.00 0.00 0.00 80 1014.1
20260505001549 56 38 2.0 10.0 0.00 0.00 0.00 80 1014.1
20260505001036 56 26 4.0 9.0 0.00 0.00 0.00 80 1014.2
20260505000537 56 50 3.0 9.0 0.00 0.00 0.00 80 1014.2
20260505000057 56 32 1.0 9.0 0.00 0.00 0.00 79 1014.3
20260504235539 57 40 4.0 9.0 0.00 0.00 0.00 79 1014.3
20260504235037 57 42 4.0 10.0 0.00 0.00 0.00 79 1014.3
20260504234547 57 50 3.0 10.0 0.00 0.00 0.00 79 1014.3
20260504234036 57 48 4.0 10.0 0.00 0.00 0.00 79 1014.3
20260504233536 57 44 2.0 8.0 0.00 0.00 0.00 79 1014.3
20260504233048 57 44 3.0 8.0 0.00 0.00 0.00 80 1014.3
20260504232537 57 0 3.0 9.0 0.00 0.00 0.00 80 1014.2
20260504232038 57 15 3.0 9.0 0.00 0.00 0.00 80 1014.2
20260504231542 57 37 3.0 9.0 0.00 0.00 0.00 80 1014.2
20260504231036 57 0 0.0 10.0 0.00 0.00 0.00 80 1014.3
20260504230536 57 46 3.0 10.0 0.00 0.00 0.00 80 1014.3
20260504230050 57 55 3.0 10.0 0.00 0.00 0.00 79 1014.2
20260504225536 57 0 3.0 8.0 0.00 0.00 0.00 79 1014.2
20260504225036 57 355 3.0 8.0 0.00 0.00 0.00 80 1014.3
20260504224548 57 46 3.0 8.0 0.00 0.00 0.00 80 1014.3
20260504224037 57 15 1.0 6.0 0.00 0.00 0.00 80 1014.2
20260504223535 58 34 1.0 7.0 0.00 0.00 0.00 80 1014.2
20260504223101 58 26 2.0 7.0 0.00 0.00 0.00 80 1014.3
20260504222535 58 0 2.0 5.0 0.00 0.00 0.00 80 1014.3
20260504222034 58 44 1.0 6.0 0.00 0.00 0.00 80 1014.3
20260504221551 58 56 2.0 6.0 0.00 0.00 0.00 80 1014.4
20260504221036 58 66 2.0 5.0 0.00 0.00 0.00 80 1014.3
20260504220534 58 48 2.0 5.0 0.00 0.00 0.00 80 1014.4
20260504220050 58 35 1.0 5.0 0.00 0.00 0.00 80 1014.5
20260504215534 58 0 1.0 9.0 0.00 0.00 0.00 80 1014.5
20260504215036 58 72 2.0 9.0 0.00 0.00 0.00 79 1014.5
20260504214547 58 49 4.0 9.0 0.00 0.00 0.00 79 1014.5
20260504214038 58 64 3.0 9.0 0.00 0.00 0.00 79 1014.4
20260504213536 58 80 3.0 9.0 0.00 0.00 0.00 79 1014.5
20260504213050 58 71 4.0 9.0 0.00 0.00 0.00 79 1014.5
20260504212538 58 84 3.0 8.0 0.00 0.00 0.00 78 1014.4
20260504212033 58 75 4.0 8.0 0.00 0.00 0.00 78 1014.4
20260504211634 58 63 3.0 8.0 0.00 0.00 0.00 77 1014.3
20260504211033 58 34 1.0 4.0 0.00 0.00 0.00 76 1014.3
20260504210535 58 163 0.0 2.0 0.00 0.00 0.00 76 1014.3
20260504210050 58 0 0.0 0.0 0.00 0.00 0.00 76 1014.4
20260504205537 58 0 0.0 0.0 0.00 0.00 0.00 75 1014.4
20260504205035 58 0 0.0 0.0 0.00 0.00 0.00 75 1014.3
20260504204550 58 0 0.0 3.0 0.00 0.00 0.00 75 1014.3
20260504204036 58 0 0.0 4.0 0.00 0.00 0.00 75 1014.3
20260504203534 58 0 2.0 4.0 0.00 0.00 0.00 75 1014.4
20260504203049 58 0 0.0 3.0 0.00 0.00 0.00 74 1014.2
20260504202536 59 211 1.0 3.0 0.00 0.00 0.00 74 1014.3
20260504202033 59 211 0.0 3.0 0.00 0.00 0.00 74 1014.2
20260504201544 59 211 1.0 3.0 0.00 0.00 0.00 73 1014.3
20260504201035 59 211 1.0 3.0 0.00 0.00 0.00 73 1014.2
20260504200536 59 211 0.0 3.0 0.00 0.00 0.00 73 1014.1
20260504200052 59 211 1.0 3.0 0.00 0.00 0.00 73 1014.1
20260504195533 59 211 1.0 4.0 0.00 0.00 0.00 73 1014.1
20260504195034 59 211 1.0 4.0 0.00 0.00 0.00 73 1014.2
20260504194551 60 211 1.0 4.0 0.00 0.00 0.00 72 1014.1
20260504194037 60 224 2.0 5.0 0.00 0.00 0.00 72 1014.0
20260504193537 60 224 2.0 5.0 0.00 0.00 0.00 72 1013.9
20260504193053 60 219 3.0 5.0 0.00 0.00 0.00 72 1013.8
20260504192537 61 255 2.0 4.0 0.00 0.00 0.00 71 1013.8
20260504192034 61 239 2.0 4.0 0.00 0.00 0.00 71 1013.8